Weather History for KBNA - October, 2011

Change the Weather History Date:

Monday, October 24, 2011

  Actual Average Record
Temperature  
Mean Temperature 59 °F 58 °F  
Max Temperature 76 °F 69 °F 85 °F (2000)
Min Temperature 42 °F 46 °F 28 °F (1981)
Degree Days  
Heating Degree Days 6    
Month to date heating degree days 123  
Since 1 July heating degree days 155  
Cooling Degree Days 0    
Month to date cooling degree days 17  
Year to date cooling degree days 1912  
Growing Degree Days 8 (Base 50)    
Moisture  
Dew Point 44 °F    
Average Humidity 64    
Maximum Humidity 92    
Minimum Humidity 35    
Precipitation  
Precipitation 0.00 in 0.10 in 1.63 in (2008)
Month to date precipitation 0.36 2.31  
Year to date precipitation 41.17 37.97  
Snow  
Snow 0.00 in 0.00 in 0.00 in (2002)
Month to date snowfall 0.0 0.0  
Since 1 July snowfall 0.0 0.0  
Since 1 September snowfall 0.0 0.0  
Snow Depth 0.00 in    
Sea Level Pressure  
Sea Level Pressure 30.16 in    
Wind  
Wind Speed 4 mph (SW)    
Max Wind Speed 14 mph    
Max Gust Speed 22 mph    
Visibility 10 miles    
Events      
T = Trace of Precipitation, MM = Missing Value Source: NWS Daily Summary

Daily Weather History Graph

Daily Weather History Graph

Search for Another Location

Airport or City:

Trip Planner

Search our weather history database for the weather conditions in past years. The results will help you decide how hot, cold, wet, or windy it might be!

Date:

Astronomy

Oct. 24, 2011 Rise Set
Actual Time 7:01 AM CDT 5:59 PM CDT
Civil Twilight 6:35 AM CDT 6:25 PM CDT
Nautical Twilight 6:05 AM CDT 6:55 PM CDT
Astronomical Twilight 5:35 AM CDT 7:25 PM CDT
Moon 4:23 AM CDT (10/24) 4:21 PM CDT (10/24)
Length of Visible Light 11h 50m
Length of Day
10h 58m
Waning Crescent, 7% of the Moon is Illuminated
Oct 24
Waning Crescent
Oct 26
New
Nov 2
First Quarter
Nov 10
Full
Nov 18
Last Quarter

Hourly Weather History & Observations

Time (CDT) Temp. Windchill Dew Point Humidity Pressure Visibility Wind Dir Wind Speed Gust Speed Precip Events Conditions
12:53 AM 48.0 °F - 42.1 °F 80% 30.11 in 10.0 mi Calm Calm - N/A   Partly Cloudy
1:53 AM 46.9 °F - 42.1 °F 83% 30.11 in 10.0 mi South 3.5 mph - N/A   Clear
2:53 AM 45.0 °F 42.6 °F 41.0 °F 86% 30.11 in 10.0 mi South 4.6 mph - N/A   Partly Cloudy
3:53 AM 45.0 °F 42.6 °F 41.0 °F 86% 30.11 in 10.0 mi SSW 4.6 mph - N/A   Clear
4:53 AM 44.1 °F 41.5 °F 41.0 °F 89% 30.12 in 10.0 mi South 4.6 mph - N/A   Clear
5:53 AM 46.9 °F - 42.1 °F 83% 30.14 in 10.0 mi Calm Calm - N/A   Partly Cloudy
6:53 AM 43.0 °F - 39.9 °F 89% 30.16 in 10.0 mi Calm Calm - N/A   Clear
7:53 AM 44.6 °F 43.1 °F 42.8 °F 93% 30.17 in 10.0 mi South 3.5 mph - N/A   Clear
8:53 AM 52.0 °F - 46.0 °F 80% 30.19 in 10.0 mi Calm Calm - N/A   Clear
9:53 AM 59.0 °F - 48.0 °F 67% 30.19 in 10.0 mi SW 3.5 mph - N/A   Clear
10:53 AM 64.9 °F - 45.0 °F 48% 30.19 in 10.0 mi Variable 4.6 mph - N/A   Clear
11:53 AM 69.1 °F - 43.0 °F 39% 30.18 in 10.0 mi West 4.6 mph - N/A   Clear
12:53 PM 71.1 °F - 45.0 °F 39% 30.14 in 10.0 mi WSW 6.9 mph - N/A   Clear
1:53 PM 73.4 °F - 46.4 °F 38% 30.13 in 10.0 mi Variable 6.9 mph - N/A   Clear
2:53 PM 73.9 °F - 46.9 °F 38% 30.12 in 10.0 mi West 6.9 mph - N/A   Scattered Clouds
3:53 PM 73.9 °F - 48.9 °F 41% 30.12 in 10.0 mi NW 11.5 mph 18.4 mph N/A   Scattered Clouds
4:53 PM 73.0 °F - 45.0 °F 37% 30.13 in 10.0 mi NNW 9.2 mph - N/A   Scattered Clouds
5:53 PM 69.1 °F - 41.0 °F 36% 30.15 in 10.0 mi NNW 8.1 mph - N/A   Scattered Clouds
6:53 PM 64.0 °F - 42.1 °F 45% 30.17 in 10.0 mi Calm Calm - N/A   Clear
7:53 PM 60.1 °F - 43.0 °F 53% 30.19 in 10.0 mi Calm Calm - N/A   Clear
8:53 PM 57.2 °F - 44.6 °F 63% 30.20 in 10.0 mi Calm Calm - N/A   Clear
9:53 PM 55.9 °F - 44.1 °F 64% 30.22 in 10.0 mi Calm Calm - N/A   Clear
10:53 PM 50.0 °F - 44.1 °F 80% 30.22 in 10.0 mi South 3.5 mph - N/A   Clear
11:53 PM 50.0 °F - 44.1 °F 80% 30.22 in 10.0 mi South 3.5 mph - N/A   Clear